Private Wetterstation Wechselburg
Wetterdaten: Samstag, 23.04.2016
Datum Zeit Temp. +2m Bodentemp. Temp.+5cm Temp. Wind Windchill X Diff Temp. Feuchte +2m Feuchte +5cm Sonnenschein Luftdruck Regen Wind Richtung Richtung Sonnenschein Taupunkt Windchill Windben
23.04.2016 00:00 4,7 C 20,4 C 5,1 C 4,4 C 3,9 C 0,0 C 77 % 81 % 0 % 1015,9 hPa 0,0 l/m 0,0 km/h (0 Bft) SW 225 0 min 1,0 C 3,9 C 0,0 km/h (0 Bft)
23.04.2016 00:05 4,6 C 20,4 C 5,1 C 4,4 C 3,9 C 0,0 C 77 % 81 % 0 % 1015,9 hPa 0,0 l/m 0,0 km/h (0 Bft) SW 225 0 min 0,9 C 3,9 C 0,0 km/h (0 Bft)
23.04.2016 00:10 4,5 C 20,4 C 4,9 C 4,3 C 3,9 C 0,0 C 78 % 80 % 0 % 1016,0 hPa 0,0 l/m 0,0 km/h (0 Bft) SW 225 0 min 1,0 C 3,9 C 0,0 km/h (0 Bft)
23.04.2016 00:15 4,4 C 20,3 C 4,8 C 4,2 C 3,8 C 0,0 C 78 % 81 % 0 % 1016,0 hPa 0,0 l/m 0,0 km/h (0 Bft) SW 225 0 min 0,9 C 3,8 C 0,0 km/h (0 Bft)
23.04.2016 00:20 4,4 C 20,3 C 4,8 C 4,2 C 3,7 C 0,0 C 78 % 81 % 0 % 1016,0 hPa 0,0 l/m 0,0 km/h (0 Bft) SO 135 0 min 0,9 C 3,7 C 0,0 km/h (0 Bft)
23.04.2016 00:25 4,3 C 20,3 C 4,8 C 4,2 C 3,9 C 0,0 C 78 % 82 % 0 % 1016,0 hPa 0,0 l/m 0,0 km/h (0 Bft) NO 45 0 min 0,8 C 3,9 C 0,0 km/h (0 Bft)
23.04.2016 00:30 4,3 C 20,3 C 4,9 C 4,2 C 4,0 C 0,0 C 78 % 82 % 0 % 1015,7 hPa 0,0 l/m 0,0 km/h (0 Bft) N-NW 337 0 min 0,8 C 4,0 C 0,0 km/h (0 Bft)
23.04.2016 00:35 4,3 C 20,3 C 4,9 C 4,2 C 4,1 C 0,0 C 79 % 82 % 0 % 1015,7 hPa 0,0 l/m 0,0 km/h (0 Bft) W-SW 247 0 min 1,0 C 4,1 C 0,0 km/h (0 Bft)
23.04.2016 00:42 4,2 C 20,3 C 5,0 C 4,2 C 4,1 C 0,0 C 79 % 82 % 0 % 1015,7 hPa 0,0 l/m 0,0 km/h (0 Bft) N 0 0 min 0,9 C 4,1 C 0,0 km/h (0 Bft)
23.04.2016 00:50 4,3 C 20,3 C 5,0 C 4,2 C 4,0 C 0,0 C 79 % 82 % 0 % 1015,6 hPa 0,0 l/m 0,0 km/h (0 Bft) W-SW 247 0 min 1,0 C 4,0 C 0,0 km/h (0 Bft)
23.04.2016 00:55 4,1 C 20,4 C 4,9 C 4,0 C 3,9 C 0,0 C 79 % 82 % 0 % 1015,6 hPa 0,0 l/m 0,0 km/h (0 Bft) W-SW 247 0 min 0,8 C 3,9 C 0,0 km/h (0 Bft)
23.04.2016 01:00 4,0 C 20,4 C 4,9 C 4,0 C 3,9 C 0,0 C 80 % 83 % 0 % 1015,6 hPa 0,0 l/m 0,0 km/h (0 Bft) W-SW 247 0 min 0,9 C 3,9 C 0,0 km/h (0 Bft)
23.04.2016 01:05 4,0 C 20,4 C 4,8 C 3,9 C 3,8 C 0,0 C 80 % 83 % 0 % 1015,6 hPa 0,0 l/m 0,0 km/h (0 Bft) W-SW 247 0 min 0,9 C 3,8 C 0,0 km/h (0 Bft)
23.04.2016 01:10 4,0 C 20,4 C 4,7 C 3,9 C 3,6 C 0,0 C 80 % 83 % 0 % 1015,6 hPa 0,0 l/m 0,0 km/h (0 Bft) W-SW 247 0 min 0,9 C 3,6 C 0,0 km/h (0 Bft)
23.04.2016 01:15 3,9 C 20,4 C 4,7 C 3,8 C 3,5 C 0,0 C 80 % 83 % 0 % 1015,6 hPa 0,0 l/m 0,0 km/h (0 Bft) W-SW 247 0 min 0,8 C 3,5 C 0,0 km/h (0 Bft)
23.04.2016 01:20 3,8 C 20,3 C 4,5 C 3,7 C 3,5 C 0,0 C 79 % 83 % 0 % 1015,6 hPa 0,0 l/m 0,0 km/h (0 Bft) W-SW 247 0 min 0,5 C 3,5 C 0,0 km/h (0 Bft)
23.04.2016 01:25 3,8 C 20,3 C 4,5 C 3,7 C 3,5 C 0,0 C 79 % 83 % 0 % 1015,6 hPa 0,0 l/m 0,0 km/h (0 Bft) W-SW 247 0 min 0,5 C 3,5 C 0,0 km/h (0 Bft)
23.04.2016 01:30 3,7 C 20,3 C 4,7 C 3,7 C 3,6 C 0,0 C 80 % 83 % 0 % 1015,6 hPa 0,0 l/m 0,0 km/h (0 Bft) W-SW 247 0 min 0,6 C 3,6 C 0,0 km/h (0 Bft)
23.04.2016 01:35 3,7 C 20,3 C 4,7 C 3,7 C 3,7 C 0,0 C 80 % 83 % 0 % 1015,6 hPa 0,0 l/m 0,0 km/h (0 Bft) W-SW 247 0 min 0,6 C 3,7 C 0,0 km/h (0 Bft)
23.04.2016 01:40 3,6 C 20,3 C 4,7 C 3,7 C 3,7 C 0,1 C 81 % 83 % 0 % 1015,6 hPa 0,0 l/m 0,0 km/h (0 Bft) W-SW 247 0 min 0,7 C 3,7 C 0,0 km/h (0 Bft)
23.04.2016 01:45 3,7 C 20,3 C 4,7 C 3,7 C 3,7 C 0,0 C 81 % 84 % 0 % 1015,6 hPa 0,0 l/m 0,0 km/h (0 Bft) W-SW 247 0 min 0,7 C 3,7 C 0,0 km/h (0 Bft)
23.04.2016 01:50 3,7 C 20,3 C 4,7 C 3,7 C 3,7 C 0,0 C 81 % 84 % 0 % 1015,2 hPa 0,0 l/m 0,0 km/h (0 Bft) W-SW 247 0 min 0,7 C 3,7 C 0,0 km/h (0 Bft)
23.04.2016 01:55 3,6 C 20,3 C 4,7 C 3,7 C 3,7 C 0,1 C 81 % 84 % 0 % 1015,2 hPa 0,0 l/m 0,0 km/h (0 Bft) W-SW 247 0 min 0,7 C 3,7 C 0,0 km/h (0 Bft)
23.04.2016 02:00 3,5 C 20,3 C 4,7 C 3,6 C 3,6 C 0,1 C 81 % 84 % 0 % 1015,2 hPa 0,0 l/m 0,0 km/h (0 Bft) W-SW 247 0 min 0,6 C 3,6 C 0,0 km/h (0 Bft)
23.04.2016 02:05 3,5 C 20,3 C 4,4 C 3,5 C 3,5 C 0,0 C 81 % 84 % 0 % 1015,2 hPa 0,0 l/m 0,0 km/h (0 Bft) W-SW 247 0 min 0,6 C 3,5 C 0,0 km/h (0 Bft)
23.04.2016 02:10 3,4 C 20,3 C 4,5 C 3,6 C 3,6 C 0,2 C 81 % 84 % 0 % 1014,9 hPa 0,0 l/m 0,0 km/h (0 Bft) W-SW 247 0 min 0,5 C 3,6 C 0,0 km/h (0 Bft)
23.04.2016 02:15 3,5 C 20,2 C 4,4 C 3,5 C 3,5 C 0,0 C 81 % 84 % 0 % 1014,9 hPa 0,0 l/m 0,0 km/h (0 Bft) W-SW 247 0 min 0,6 C 3,5 C 0,0 km/h (0 Bft)
23.04.2016 02:20 3,3 C 20,2 C 4,4 C 3,5 C 3,5 C 0,2 C 81 % 84 % 0 % 1014,9 hPa 0,0 l/m 0,0 km/h (0 Bft) W-SW 247 0 min 0,4 C 3,5 C 0,0 km/h (0 Bft)
23.04.2016 02:25 3,3 C 20,2 C 4,4 C 3,4 C 3,4 C 0,1 C 81 % 84 % 0 % 1014,9 hPa 0,0 l/m 0,0 km/h (0 Bft) W-SW 247 0 min 0,4 C 3,4 C 0,0 km/h (0 Bft)
23.04.2016 02:30 3,3 C 20,2 C 4,4 C 3,3 C 3,3 C 0,0 C 81 % 85 % 0 % 1014,6 hPa 0,0 l/m 0,0 km/h (0 Bft) W-SW 247 0 min 0,4 C 3,3 C 0,0 km/h (0 Bft)
23.04.2016 02:35 3,3 C 20,2 C 4,4 C 3,3 C 3,3 C 0,0 C 82 % 85 % 0 % 1014,6 hPa 0,0 l/m 0,0 km/h (0 Bft) W-SW 247 0 min 0,5 C 3,3 C 0,0 km/h (0 Bft)
23.04.2016 02:40 3,2 C 20,2 C 4,3 C 3,3 C 3,3 C 0,1 C 82 % 85 % 0 % 1014,6 hPa 0,0 l/m 0,0 km/h (0 Bft) W-SW 247 0 min 0,4 C 3,3 C 0,0 km/h (0 Bft)
23.04.2016 02:45 3,2 C 20,2 C 4,3 C 3,2 C 3,2 C 0,0 C 82 % 85 % 0 % 1014,6 hPa 0,0 l/m 0,0 km/h (0 Bft) W-SW 247 0 min 0,4 C 3,2 C 0,0 km/h (0 Bft)
23.04.2016 02:50 3,2 C 20,2 C 4,2 C 3,2 C 3,2 C 0,0 C 82 % 85 % 0 % 1014,8 hPa 0,0 l/m 0,0 km/h (0 Bft) W-SW 247 0 min 0,4 C 3,2 C 0,0 km/h (0 Bft)
23.04.2016 02:55 3,1 C 20,2 C 4,1 C 3,3 C 3,3 C 0,2 C 82 % 85 % 0 % 1014,8 hPa 0,0 l/m 0,0 km/h (0 Bft) O 90 0 min 0,3 C 3,3 C 0,0 km/h (0 Bft)
23.04.2016 03:00 3,2 C 20,2 C 4,1 C 3,3 C 3,3 C 0,1 C 82 % 85 % 0 % 1014,8 hPa 0,0 l/m 0,0 km/h (0 Bft) O-NO 67 0 min 0,4 C 3,3 C 0,0 km/h (0 Bft)
23.04.2016 03:05 3,2 C 20,2 C 4,3 C 3,5 C 3,5 C 0,3 C 82 % 86 % 0 % 1014,8 hPa 0,0 l/m 0,0 km/h (0 Bft) O-NO 67 0 min 0,4 C 3,5 C 0,0 km/h (0 Bft)
23.04.2016 03:10 3,2 C 20,1 C 4,3 C 3,5 C 3,5 C 0,3 C 82 % 86 % 0 % 1014,2 hPa 0,0 l/m 0,0 km/h (0 Bft) W-SW 247 0 min 0,4 C 3,5 C 0,0 km/h (0 Bft)
23.04.2016 03:15 3,1 C 20,1 C 4,3 C 3,5 C 3,5 C 0,4 C 82 % 86 % 0 % 1014,2 hPa 0,0 l/m 0,0 km/h (0 Bft) W-SW 247 0 min 0,3 C 3,5 C 0,0 km/h (0 Bft)
23.04.2016 03:20 3,1 C 20,2 C 4,3 C 3,5 C 3,5 C 0,4 C 82 % 86 % 0 % 1014,2 hPa 0,0 l/m 0,0 km/h (0 Bft) W-SW 247 0 min 0,3 C 3,5 C 0,0 km/h (0 Bft)
23.04.2016 03:25 3,1 C 20,2 C 4,3 C 3,5 C 3,5 C 0,4 C 82 % 86 % 0 % 1014,2 hPa 0,0 l/m 0,0 km/h (0 Bft) W-SW 247 0 min 0,3 C 3,5 C 0,0 km/h (0 Bft)
23.04.2016 03:30 3,1 C 20,2 C 4,3 C 3,5 C 3,5 C 0,4 C 82 % 86 % 0 % 1013,9 hPa 0,0 l/m 0,0 km/h (0 Bft) W 270 0 min 0,3 C 3,5 C 0,0 km/h (0 Bft)
23.04.2016 03:35 3,1 C 20,2 C 4,3 C 3,4 C 3,4 C 0,3 C 82 % 86 % 0 % 1013,9 hPa 0,0 l/m 0,0 km/h (0 Bft) O-SO 112 0 min 0,3 C 3,4 C 0,0 km/h (0 Bft)
23.04.2016 03:43 3,1 C 20,1 C 4,1 C 3,3 C 3,3 C 0,2 C 82 % 86 % 0 % 1013,9 hPa 0,0 l/m 0,0 km/h (0 Bft) N 0 0 min 0,3 C 3,3 C 0,0 km/h (0 Bft)
23.04.2016 03:50 3,0 C 20,1 C 4,0 C 3,3 C 3,3 C 0,3 C 83 % 86 % 0 % 1013,8 hPa 0,0 l/m 0,0 km/h (0 Bft) O-NO 67 0 min 0,4 C 3,3 C 0,0 km/h (0 Bft)
23.04.2016 03:55 3,0 C 20,1 C 4,0 C 3,4 C 3,4 C 0,4 C 83 % 86 % 0 % 1013,8 hPa 0,0 l/m 0,0 km/h (0 Bft) O-NO 67 0 min 0,4 C 3,4 C 0,0 km/h (0 Bft)
23.04.2016 04:00 2,9 C 20,1 C 4,0 C 3,3 C 3,3 C 0,4 C 83 % 86 % 0 % 1013,8 hPa 0,0 l/m 0,0 km/h (0 Bft) O-NO 67 0 min 0,3 C 3,3 C 0,0 km/h (0 Bft)
23.04.2016 04:05 2,9 C 20,1 C 4,1 C 3,3 C 3,3 C 0,4 C 83 % 86 % 0 % 1013,8 hPa 0,0 l/m 0,0 km/h (0 Bft) W-SW 247 0 min 0,3 C 3,3 C 0,0 km/h (0 Bft)
23.04.2016 04:10 2,9 C 20,1 C 4,1 C 3,3 C 3,3 C 0,4 C 83 % 86 % 0 % 1013,9 hPa 0,0 l/m 0,0 km/h (0 Bft) W 270 0 min 0,3 C 3,3 C 0,0 km/h (0 Bft)
23.04.2016 04:15 2,9 C 20,1 C 4,0 C 3,3 C 3,3 C 0,4 C 83 % 86 % 0 % 1013,9 hPa 0,0 l/m 0,0 km/h (0 Bft) W 270 0 min 0,3 C 3,3 C 0,0 km/h (0 Bft)
23.04.2016 04:20 2,8 C 20,1 C 4,0 C 3,2 C 3,2 C 0,4 C 83 % 87 % 0 % 1013,9 hPa 0,0 l/m 0,0 km/h (0 Bft) S-SW 202 0 min 0,2 C 3,2 C 0,0 km/h (0 Bft)
23.04.2016 04:25 2,8 C 20,1 C 4,1 C 3,2 C 3,2 C 0,4 C 83 % 87 % 0 % 1013,9 hPa 0,0 l/m 0,0 km/h (0 Bft) W-SW 247 0 min 0,2 C 3,2 C 0,0 km/h (0 Bft)
23.04.2016 04:30 2,8 C 20,1 C 4,1 C 3,2 C 3,2 C 0,4 C 83 % 87 % 0 % 1013,6 hPa 0,0 l/m 0,0 km/h (0 Bft) W-SW 247 0 min 0,2 C 3,2 C 0,0 km/h (0 Bft)
23.04.2016 04:35 2,8 C 20,1 C 4,0 C 3,3 C 3,3 C 0,5 C 83 % 87 % 0 % 1013,6 hPa 0,0 l/m 0,0 km/h (0 Bft) NW 315 0 min 0,2 C 3,3 C 0,0 km/h (0 Bft)
23.04.2016 04:40 2,8 C 20,1 C 4,0 C 3,3 C 3,3 C 0,5 C 84 % 87 % 0 % 1013,6 hPa 0,0 l/m 0,0 km/h (0 Bft) NW 315 0 min 0,4 C 3,3 C 0,0 km/h (0 Bft)
23.04.2016 04:45 2,9 C 20,1 C 4,0 C 3,3 C 3,3 C 0,4 C 84 % 87 % 0 % 1013,6 hPa 0,0 l/m 0,0 km/h (0 Bft) O-NO 67 0 min 0,5 C 3,3 C 0,0 km/h (0 Bft)
23.04.2016 04:50 2,8 C 20,1 C 4,0 C 3,3 C 3,3 C 0,5 C 84 % 87 % 0 % 1013,5 hPa 0,0 l/m 0,0 km/h (0 Bft) O-NO 67 0 min 0,4 C 3,3 C 0,0 km/h (0 Bft)
23.04.2016 04:55 2,8 C 20,0 C 4,1 C 3,4 C 3,4 C 0,6 C 84 % 87 % 0 % 1013,5 hPa 0,0 l/m 0,0 km/h (0 Bft) N-NW 337 0 min 0,4 C 3,4 C 0,0 km/h (0 Bft)
23.04.2016 05:00 2,9 C 20,0 C 4,1 C 3,4 C 3,4 C 0,5 C 84 % 87 % 0 % 1013,5 hPa 0,0 l/m 0,0 km/h (0 Bft) N-NW 337 0 min 0,5 C 3,4 C 0,0 km/h (0 Bft)
23.04.2016 05:05 2,9 C 20,0 C 4,1 C 3,4 C 3,4 C 0,5 C 84 % 87 % 0 % 1013,5 hPa 0,0 l/m 0,0 km/h (0 Bft) S-SW 202 0 min 0,5 C 3,4 C 0,0 km/h (0 Bft)
23.04.2016 05:10 2,8 C 20,0 C 4,1 C 3,5 C 3,5 C 0,7 C 84 % 87 % 0 % 1013,4 hPa 0,0 l/m 0,0 km/h (0 Bft) W-SW 247 0 min 0,4 C 3,5 C 0,0 km/h (0 Bft)
23.04.2016 05:15 2,9 C 20,0 C 4,3 C 3,6 C 3,6 C 0,7 C 84 % 87 % 0 % 1013,4 hPa 0,0 l/m 0,0 km/h (0 Bft) SW 225 0 min 0,5 C 3,6 C 0,0 km/h (0 Bft)
23.04.2016 05:20 2,8 C 20,0 C 4,1 C 3,6 C 3,6 C 0,8 C 84 % 87 % 0 % 1013,4 hPa 0,0 l/m 0,0 km/h (0 Bft) SW 225 0 min 0,4 C 3,6 C 0,0 km/h (0 Bft)
23.04.2016 05:25 2,8 C 19,9 C 4,1 C 3,6 C 3,6 C 0,8 C 84 % 87 % 0 % 1013,4 hPa 0,0 l/m 0,0 km/h (0 Bft) SO 135 0 min 0,4 C 3,6 C 0,0 km/h (0 Bft)
23.04.2016 05:30 2,8 C 19,9 C 4,1 C 3,6 C 3,6 C 0,8 C 84 % 87 % 0 % 1013,6 hPa 0,0 l/m 0,0 km/h (0 Bft) O-NO 67 0 min 0,4 C 3,6 C 0,0 km/h (0 Bft)
23.04.2016 05:35 2,9 C 19,9 C 4,1 C 3,7 C 3,7 C 0,8 C 84 % 87 % 0 % 1013,6 hPa 0,0 l/m 0,0 km/h (0 Bft) O-NO 67 0 min 0,5 C 3,7 C 0,0 km/h (0 Bft)
23.04.2016 05:40 2,8 C 19,9 C 4,2 C 3,7 C 3,7 C 0,9 C 84 % 87 % 0 % 1013,6 hPa 0,0 l/m 0,0 km/h (0 Bft) NO 45 0 min 0,4 C 3,7 C 0,0 km/h (0 Bft)
23.04.2016 05:45 2,8 C 19,9 C 4,3 C 3,6 C 3,6 C 0,8 C 84 % 87 % 0 % 1013,6 hPa 0,0 l/m 0,0 km/h (0 Bft) NO 45 0 min 0,4 C 3,6 C 0,0 km/h (0 Bft)
23.04.2016 05:50 2,8 C 19,9 C 4,2 C 3,6 C 3,6 C 0,8 C 84 % 87 % 0 % 1013,6 hPa 0,0 l/m 0,0 km/h (0 Bft) S-SW 202 0 min 0,4 C 3,6 C 0,0 km/h (0 Bft)
23.04.2016 05:55 2,8 C 19,8 C 4,3 C 3,6 C 3,6 C 0,8 C 84 % 87 % 0 % 1013,6 hPa 0,0 l/m 0,0 km/h (0 Bft) SW 225 0 min 0,4 C 3,6 C 0,0 km/h (0 Bft)
23.04.2016 06:00 2,8 C 19,8 C 4,2 C 3,6 C 3,6 C 0,8 C 84 % 87 % 0 % 1013,6 hPa 0,0 l/m 0,0 km/h (0 Bft) W-NW 292 0 min 0,4 C 3,6 C 0,0 km/h (0 Bft)
23.04.2016 06:05 2,8 C 19,8 C 4,3 C 3,6 C 3,6 C 0,8 C 84 % 87 % 0 % 1013,6 hPa 0,0 l/m 0,0 km/h (0 Bft) W-NW 292 0 min 0,4 C 3,6 C 0,0 km/h (0 Bft)
23.04.2016 06:10 2,9 C 19,8 C 4,2 C 3,6 C 3,6 C 0,7 C 84 % 87 % 18 % 1013,4 hPa 0,0 l/m 0,2 km/h (0 Bft) N-NO 22 5 min 0,5 C 3,6 C 4,0 km/h (1 Bft)
23.04.2016 06:15 2,8 C 19,8 C 4,3 C 3,8 C 3,8 C 1,0 C 84 % 87 % 26 % 1013,4 hPa 0,0 l/m 0,2 km/h (0 Bft) W 270 5 min 0,4 C 3,8 C 0,0 km/h (0 Bft)
23.04.2016 06:20 2,9 C 19,8 C 4,4 C 3,9 C 3,9 C 1,0 C 84 % 86 % 26 % 1013,4 hPa 0,0 l/m 0,2 km/h (0 Bft) NO 45 5 min 0,5 C 3,9 C 0,0 km/h (0 Bft)
23.04.2016 06:25 2,9 C 19,8 C 4,5 C 4,0 C 4,0 C 1,1 C 84 % 86 % 29 % 1013,4 hPa 0,0 l/m 0,3 km/h (0 Bft) N-NO 22 5 min 0,5 C 4,0 C 0,0 km/h (0 Bft)
23.04.2016 06:30 3,0 C 19,8 C 4,5 C 4,1 C 4,1 C 1,1 C 84 % 86 % 29 % 1013,4 hPa 0,0 l/m 0,3 km/h (0 Bft) N-NO 22 5 min 0,6 C 4,1 C 0,0 km/h (0 Bft)
23.04.2016 06:35 3,1 C 19,8 C 4,6 C 4,2 C 4,2 C 1,1 C 83 % 86 % 29 % 1013,4 hPa 0,0 l/m 0,0 km/h (0 Bft) O-NO 67 5 min 0,5 C 4,2 C 0,0 km/h (0 Bft)
23.04.2016 06:43 3,3 C 19,7 C 4,7 C 4,4 C 4,4 C 1,1 C 83 % 85 % 29 % 1013,4 hPa 0,0 l/m 0,5 km/h (0 Bft) N 0 8 min 0,7 C 4,4 C 0,0 km/h (0 Bft)
23.04.2016 06:50 3,2 C 19,7 C 4,8 C 4,6 C 4,6 C 1,4 C 83 % 85 % 37 % 1013,4 hPa 0,0 l/m 0,8 km/h (0 Bft) NW 315 7 min 0,6 C 4,6 C 2,1 km/h (1 Bft)
23.04.2016 06:55 3,4 C 19,7 C 4,8 C 4,8 C 4,8 C 1,4 C 82 % 84 % 37 % 1013,4 hPa 0,0 l/m 1,1 km/h (1 Bft) O 90 5 min 0,6 C 4,8 C 4,3 km/h (1 Bft)
23.04.2016 07:00 3,5 C 19,7 C 4,8 C 4,9 C 4,9 C 1,4 C 82 % 84 % 37 % 1013,4 hPa 0,0 l/m 0,6 km/h (0 Bft) W-SW 247 0 min 0,7 C 4,9 C 0,0 km/h (0 Bft)
23.04.2016 07:05 3,6 C 19,7 C 4,9 C 5,0 C 5,0 C 1,4 C 82 % 84 % 37 % 1013,4 hPa 0,0 l/m 0,5 km/h (0 Bft) SO 135 0 min 0,8 C 5,0 C 1,8 km/h (1 Bft)
23.04.2016 07:10 3,6 C 19,7 C 4,9 C 5,0 C 5,0 C 1,4 C 82 % 83 % 37 % 1013,5 hPa 0,0 l/m 0,6 km/h (0 Bft) S-SW 202 0 min 0,8 C 5,0 C 2,1 km/h (1 Bft)
23.04.2016 07:15 3,7 C 19,7 C 5,1 C 5,1 C 5,1 C 1,4 C 82 % 84 % 37 % 1013,5 hPa 0,0 l/m 0,8 km/h (0 Bft) SW 225 0 min 0,9 C 5,1 C 2,1 km/h (1 Bft)
23.04.2016 07:20 3,9 C 19,7 C 5,1 C 5,1 C 5,1 C 1,2 C 81 % 84 % 32 % 1013,5 hPa 0,0 l/m 1,3 km/h (1 Bft) SW 225 0 min 0,9 C 5,1 C 2,4 km/h (1 Bft)
23.04.2016 07:25 4,0 C 19,7 C 5,1 C 5,2 C 5,2 C 1,2 C 81 % 83 % 32 % 1013,5 hPa 0,0 l/m 1,6 km/h (1 Bft) NW 315 0 min 1,0 C 5,2 C 4,8 km/h (1 Bft)
23.04.2016 07:30 4,0 C 19,7 C 5,1 C 5,3 C 5,3 C 1,3 C 81 % 83 % 34 % 1013,3 hPa 0,0 l/m 1,9 km/h (1 Bft) SW 225 0 min 1,0 C 5,3 C 5,0 km/h (1 Bft)
23.04.2016 07:35 4,1 C 19,7 C 5,2 C 5,4 C 5,4 C 1,3 C 80 % 83 % 34 % 1013,3 hPa 0,0 l/m 2,3 km/h (1 Bft) S-SW 202 0 min 1,0 C 5,4 C 6,0 km/h (2 Bft)
23.04.2016 07:40 4,2 C 19,7 C 5,5 C 5,5 C 5,5 C 1,3 C 80 % 83 % 34 % 1013,3 hPa 0,0 l/m 2,1 km/h (1 Bft) SW 225 0 min 1,1 C 5,5 C 2,3 km/h (1 Bft)
23.04.2016 07:45 4,2 C 19,7 C 5,6 C 5,8 C 5,8 C 1,6 C 80 % 83 % 42 % 1013,3 hPa 0,0 l/m 1,4 km/h (1 Bft) W-SW 247 0 min 1,1 C 5,8 C 5,3 km/h (1 Bft)
23.04.2016 07:50 4,4 C 19,7 C 5,6 C 5,9 C 5,9 C 1,5 C 80 % 83 % 39 % 1013,5 hPa 0,0 l/m 1,1 km/h (1 Bft) SW 225 0 min 1,3 C 5,9 C 2,1 km/h (1 Bft)
23.04.2016 07:55 4,4 C 19,6 C 5,9 C 6,2 C 6,2 C 1,8 C 80 % 82 % 47 % 1013,5 hPa 0,0 l/m 1,6 km/h (1 Bft) S 180 0 min 1,3 C 6,2 C 0,0 km/h (0 Bft)
23.04.2016 08:00 4,5 C 19,5 C 6,0 C 6,4 C 6,4 C 1,9 C 80 % 82 % 50 % 1013,5 hPa 0,0 l/m 1,9 km/h (1 Bft) W-SW 247 0 min 1,4 C 6,4 C 4,0 km/h (1 Bft)
23.04.2016 08:05 4,6 C 19,5 C 6,1 C 6,8 C 6,8 C 2,2 C 80 % 82 % 58 % 1013,5 hPa 0,0 l/m 2,4 km/h (1 Bft) S 180 0 min 1,5 C 6,8 C 6,9 km/h (2 Bft)
23.04.2016 08:10 4,7 C 19,5 C 6,1 C 6,8 C 6,8 C 2,1 C 79 % 81 % 55 % 1013,7 hPa 0,0 l/m 3,1 km/h (1 Bft) W-SW 247 0 min 1,4 C 6,8 C 3,1 km/h (1 Bft)
23.04.2016 08:15 4,8 C 19,5 C 6,1 C 6,8 C 6,8 C 2,0 C 79 % 81 % 53 % 1013,7 hPa 0,0 l/m 2,9 km/h (1 Bft) NW 315 0 min 1,5 C 6,8 C 3,5 km/h (1 Bft)
23.04.2016 08:20 4,8 C 19,5 C 6,1 C 6,8 C 6,8 C 2,0 C 79 % 81 % 53 % 1013,7 hPa 0,0 l/m 2,7 km/h (1 Bft) W 270 0 min 1,5 C 6,8 C 4,3 km/h (1 Bft)
23.04.2016 08:25 4,8 C 19,5 C 6,3 C 7,1 C 7,1 C 2,3 C 79 % 81 % 61 % 1013,7 hPa 0,0 l/m 2,9 km/h (1 Bft) SW 225 0 min 1,5 C 7,1 C 2,4 km/h (1 Bft)
23.04.2016 08:30 4,8 C 19,5 C 6,5 C 7,6 C 7,6 C 2,8 C 79 % 81 % 74 % 1013,5 hPa 0,0 l/m 2,7 km/h (1 Bft) W-SW 247 0 min 1,5 C 7,6 C 1,8 km/h (1 Bft)
23.04.2016 08:35 5,1 C 19,5 C 6,7 C 8,2 C 8,2 C 3,1 C 79 % 80 % 82 % 1013,5 hPa 0,0 l/m 1,9 km/h (1 Bft) W 270 0 min 1,8 C 8,2 C 4,8 km/h (1 Bft)
23.04.2016 08:40 5,1 C 19,5 C 6,8 C 8,4 C 8,4 C 3,3 C 79 % 80 % 87 % 1013,5 hPa 0,0 l/m 1,4 km/h (1 Bft) W-SW 247 5 min 1,8 C 8,4 C 4,8 km/h (1 Bft)
23.04.2016 08:45 5,2 C 19,5 C 7,0 C 8,7 C 8,7 C 3,5 C 79 % 79 % 92 % 1013,5 hPa 0,0 l/m 2,6 km/h (1 Bft) W-SW 247 5 min 1,9 C 8,7 C 5,6 km/h (1 Bft)
23.04.2016 08:50 5,3 C 19,5 C 7,3 C 8,7 C 8,7 C 3,4 C 78 % 79 % 89 % 1013,7 hPa 0,0 l/m 3,7 km/h (1 Bft) SW 225 5 min 1,8 C 8,7 C 3,7 km/h (1 Bft)
23.04.2016 08:55 5,3 C 19,5 C 7,2 C 8,6 C 8,6 C 3,3 C 79 % 79 % 87 % 1013,7 hPa 0,0 l/m 3,4 km/h (1 Bft) W-SW 247 5 min 2,0 C 8,6 C 4,8 km/h (1 Bft)
23.04.2016 09:00 5,5 C 19,5 C 7,2 C 8,6 C 8,6 C 3,1 C 78 % 78 % 82 % 1013,7 hPa 0,0 l/m 3,1 km/h (1 Bft) SW 225 0 min 2,0 C 8,6 C 2,7 km/h (1 Bft)
23.04.2016 09:05 5,6 C 19,5 C 7,4 C 8,9 C 8,9 C 3,3 C 78 % 79 % 87 % 1013,7 hPa 0,0 l/m 2,9 km/h (1 Bft) SW 225 5 min 2,1 C 8,9 C 7,1 km/h (2 Bft)
23.04.2016 09:10 5,6 C 19,5 C 7,6 C 9,2 C 9,2 C 3,6 C 78 % 78 % 95 % 1013,4 hPa 0,0 l/m 2,3 km/h (1 Bft) NO 45 5 min 2,1 C 9,2 C 0,0 km/h (0 Bft)
23.04.2016 09:15 5,9 C 19,5 C 7,6 C 9,5 C 9,5 C 3,6 C 78 % 77 % 95 % 1013,4 hPa 0,0 l/m 2,7 km/h (1 Bft) W-SW 247 5 min 2,4 C 9,5 C 2,9 km/h (1 Bft)
23.04.2016 09:20 5,9 C 19,5 C 7,7 C 9,5 C 9,5 C 3,6 C 78 % 77 % 95 % 1013,4 hPa 0,0 l/m 3,2 km/h (1 Bft) W-SW 247 5 min 2,4 C 9,5 C 7,2 km/h (2 Bft)
23.04.2016 09:25 6,0 C 19,5 C 8,0 C 9,3 C 9,3 C 3,3 C 77 % 76 % 87 % 1013,4 hPa 0,0 l/m 4,3 km/h (1 Bft) W-SW 247 5 min 2,3 C 9,3 C 7,9 km/h (2 Bft)
23.04.2016 09:30 6,1 C 19,5 C 8,3 C 9,7 C 9,7 C 3,6 C 77 % 76 % 95 % 1013,6 hPa 0,0 l/m 4,0 km/h (1 Bft) SW 225 5 min 2,4 C 9,7 C 5,0 km/h (1 Bft)
23.04.2016 09:35 6,3 C 19,5 C 8,5 C 10,2 C 10,2 C 3,9 C 77 % 76 % 100 % 1013,6 hPa 0,0 l/m 2,9 km/h (1 Bft) W-SW 247 5 min 2,6 C 10,2 C 4,0 km/h (1 Bft)
23.04.2016 09:41 6,3 C 19,5 C 8,5 C 10,2 C 10,2 C 3,9 C 77 % 75 % 100 % 1013,6 hPa 0,0 l/m 2,6 km/h (1 Bft) N 0 6 min 2,6 C 10,2 C 0,0 km/h (0 Bft)
23.04.2016 09:50 6,5 C 19,5 C 8,5 C 10,1 C 10,1 C 3,6 C 77 % 75 % 95 % 1013,1 hPa 0,0 l/m 2,4 km/h (1 Bft) NW 315 9 min 2,8 C 10,1 C 9,5 km/h (2 Bft)
23.04.2016 09:55 6,7 C 19,5 C 8,7 C 9,9 C 9,9 C 3,2 C 76 % 75 % 84 % 1013,1 hPa 0,0 l/m 3,2 km/h (1 Bft) W-SW 247 0 min 2,8 C 9,9 C 4,2 km/h (1 Bft)
23.04.2016 10:00 6,7 C 19,5 C 8,9 C 10,0 C 10,0 C 3,3 C 76 % 75 % 87 % 1013,1 hPa 0,0 l/m 2,6 km/h (1 Bft) O-NO 67 5 min 2,8 C 10,0 C 0,0 km/h (0 Bft)
23.04.2016 10:05 7,0 C 19,5 C 9,0 C 10,3 C 10,3 C 3,3 C 75 % 74 % 87 % 1013,1 hPa 0,0 l/m 2,7 km/h (1 Bft) SW 225 5 min 2,9 C 10,3 C 3,1 km/h (1 Bft)
23.04.2016 10:10 7,1 C 19,5 C 9,3 C 10,4 C 10,4 C 3,3 C 75 % 73 % 87 % 1012,8 hPa 0,0 l/m 2,4 km/h (1 Bft) S 180 5 min 3,0 C 10,4 C 4,7 km/h (1 Bft)
23.04.2016 10:15 7,1 C 19,5 C 9,1 C 10,4 C 10,4 C 3,3 C 74 % 72 % 87 % 1012,8 hPa 0,0 l/m 3,2 km/h (1 Bft) S 180 5 min 2,8 C 10,4 C 9,8 km/h (2 Bft)
23.04.2016 10:20 7,1 C 19,5 C 9,0 C 9,8 C 9,8 C 2,7 C 74 % 72 % 71 % 1012,8 hPa 0,0 l/m 4,7 km/h (1 Bft) S-SW 202 0 min 2,8 C 9,6 C 5,8 km/h (2 Bft)
23.04.2016 10:25 6,9 C 19,5 C 8,9 C 9,6 C 9,6 C 2,7 C 74 % 72 % 71 % 1012,8 hPa 0,0 l/m 4,8 km/h (1 Bft) W 270 0 min 2,6 C 9,4 C 3,9 km/h (1 Bft)
23.04.2016 10:30 7,1 C 19,5 C 8,9 C 9,7 C 9,7 C 2,6 C 74 % 72 % 68 % 1012,9 hPa 0,0 l/m 3,7 km/h (1 Bft) S 180 0 min 2,8 C 9,7 C 3,1 km/h (1 Bft)
23.04.2016 10:35 7,1 C 19,5 C 8,9 C 9,5 C 9,5 C 2,4 C 73 % 72 % 63 % 1012,9 hPa 0,0 l/m 3,2 km/h (1 Bft) NW 315 0 min 2,6 C 9,5 C 4,0 km/h (1 Bft)
23.04.2016 10:40 7,1 C 19,5 C 8,7 C 9,3 C 9,3 C 2,2 C 73 % 71 % 58 % 1012,9 hPa 0,0 l/m 3,1 km/h (1 Bft) N-NO 22 0 min 2,6 C 9,3 C 3,2 km/h (1 Bft)
23.04.2016 10:45 7,2 C 19,5 C 8,8 C 9,4 C 9,4 C 2,2 C 73 % 71 % 58 % 1012,9 hPa 0,0 l/m 2,6 km/h (1 Bft) W 270 0 min 2,7 C 9,4 C 6,0 km/h (2 Bft)
23.04.2016 10:50 7,2 C 19,5 C 8,7 C 9,3 C 9,3 C 2,1 C 73 % 71 % 55 % 1012,8 hPa 0,0 l/m 3,1 km/h (1 Bft) W-SW 247 0 min 2,7 C 9,3 C 4,8 km/h (1 Bft)
23.04.2016 10:55 7,1 C 19,5 C 8,5 C 9,2 C 9,2 C 2,1 C 72 % 71 % 55 % 1012,8 hPa 0,0 l/m 3,7 km/h (1 Bft) W-SW 247 0 min 2,4 C 9,2 C 5,5 km/h (1 Bft)
23.04.2016 11:00 7,1 C 19,5 C 8,6 C 9,1 C 9,1 C 2,0 C 72 % 71 % 53 % 1012,8 hPa 0,0 l/m 3,5 km/h (1 Bft) W 270 0 min 2,4 C 9,1 C 7,9 km/h (2 Bft)
23.04.2016 11:05 7,1 C 19,5 C 8,6 C 8,9 C 8,9 C 1,8 C 73 % 71 % 47 % 1012,8 hPa 0,0 l/m 4,2 km/h (1 Bft) W-SW 247 0 min 2,6 C 8,9 C 10,1 km/h (2 Bft)
23.04.2016 11:10 7,1 C 19,5 C 8,6 C 9,0 C 9,0 C 1,9 C 73 % 72 % 50 % 1012,9 hPa 0,0 l/m 3,9 km/h (1 Bft) W-SW 247 0 min 2,6 C 9,0 C 3,1 km/h (1 Bft)
23.04.2016 11:15 7,0 C 19,5 C 8,4 C 9,1 C 9,1 C 2,1 C 73 % 71 % 55 % 1012,9 hPa 0,0 l/m 2,7 km/h (1 Bft) SW 225 0 min 2,5 C 9,1 C 4,0 km/h (1 Bft)
23.04.2016 11:20 6,9 C 19,5 C 8,5 C 8,9 C 8,9 C 2,0 C 72 % 71 % 53 % 1012,9 hPa 0,0 l/m 3,7 km/h (1 Bft) SW 225 0 min 2,2 C 8,9 C 5,3 km/h (1 Bft)
23.04.2016 11:25 6,8 C 19,5 C 8,4 C 8,3 C 8,3 C 1,5 C 73 % 72 % 39 % 1012,9 hPa 0,0 l/m 5,0 km/h (1 Bft) W-SW 247 0 min 2,3 C 7,8 C 10,6 km/h (2 Bft)
23.04.2016 11:30 6,9 C 19,5 C 8,5 C 8,3 C 8,3 C 1,4 C 73 % 71 % 37 % 1012,9 hPa 0,0 l/m 5,0 km/h (1 Bft) SW 225 0 min 2,4 C 7,8 C 7,1 km/h (2 Bft)
23.04.2016 11:35 6,8 C 19,5 C 8,7 C 8,7 C 8,7 C 1,9 C 73 % 71 % 50 % 1012,9 hPa 0,0 l/m 5,1 km/h (1 Bft) W-SW 247 0 min 2,3 C 8,2 C 8,2 km/h (2 Bft)
23.04.2016 11:40 6,9 C 19,5 C 9,0 C 9,3 C 9,3 C 2,4 C 73 % 71 % 63 % 1012,9 hPa 0,0 l/m 4,2 km/h (1 Bft) NO 45 0 min 2,4 C 9,3 C 2,4 km/h (1 Bft)
23.04.2016 11:45 7,2 C 19,5 C 9,5 C 10,3 C 10,3 C 3,1 C 73 % 71 % 82 % 1012,9 hPa 0,0 l/m 2,7 km/h (1 Bft) SW 225 0 min 2,7 C 10,3 C 5,3 km/h (1 Bft)
23.04.2016 11:50 7,2 C 19,5 C 9,5 C 10,5 C 10,5 C 3,3 C 72 % 71 % 87 % 1012,8 hPa 0,0 l/m 2,3 km/h (1 Bft) W 270 5 min 2,5 C 10,5 C 1,9 km/h (1 Bft)
23.04.2016 11:55 7,3 C 19,5 C 9,4 C 10,5 C 10,5 C 3,2 C 73 % 71 % 84 % 1012,8 hPa 0,0 l/m 2,9 km/h (1 Bft) SW 225 0 min 2,8 C 10,5 C 3,9 km/h (1 Bft)
23.04.2016 12:00 7,2 C 19,5 C 9,3 C 10,2 C 10,2 C 3,0 C 73 % 71 % 79 % 1012,8 hPa 0,0 l/m 2,7 km/h (1 Bft) S-SW 202 0 min 2,7 C 10,2 C 2,1 km/h (1 Bft)
23.04.2016 12:05 7,2 C 19,5 C 9,3 C 9,9 C 9,9 C 2,7 C 73 % 71 % 71 % 1012,8 hPa 0,0 l/m 4,0 km/h (1 Bft) S-SW 202 0 min 2,7 C 9,9 C 6,6 km/h (2 Bft)
23.04.2016 12:10 7,0 C 19,5 C 9,2 C 9,8 C 9,8 C 2,8 C 74 % 72 % 74 % 1012,5 hPa 0,0 l/m 3,4 km/h (1 Bft) N-NO 22 0 min 2,7 C 9,8 C 0,0 km/h (0 Bft)
23.04.2016 12:15 7,2 C 19,5 C 9,7 C 10,2 C 10,2 C 3,0 C 75 % 73 % 79 % 1012,5 hPa 0,0 l/m 2,4 km/h (1 Bft) S 180 0 min 3,1 C 10,2 C 2,6 km/h (1 Bft)
23.04.2016 12:20 7,5 C 19,5 C 9,9 C 10,5 C 10,5 C 3,0 C 75 % 73 % 79 % 1012,5 hPa 0,0 l/m 2,4 km/h (1 Bft) W-SW 247 0 min 3,4 C 10,5 C 4,8 km/h (1 Bft)
23.04.2016 12:25 7,3 C 19,4 C 10,1 C 10,7 C 10,7 C 3,4 C 75 % 73 % 89 % 1012,5 hPa 0,0 l/m 3,5 km/h (1 Bft) W-SW 247 5 min 3,2 C 10,7 C 6,6 km/h (2 Bft)
23.04.2016 12:30 7,3 C 19,5 C 9,9 C 10,7 C 10,7 C 3,4 C 74 % 72 % 89 % 1012,6 hPa 0,0 l/m 4,7 km/h (1 Bft) S 180 5 min 3,0 C 10,7 C 7,6 km/h (2 Bft)
23.04.2016 12:35 7,1 C 19,5 C 9,8 C 9,7 C 9,7 C 2,6 C 74 % 71 % 68 % 1012,6 hPa 0,0 l/m 6,1 km/h (2 Bft) W-SW 247 0 min 2,8 C 9,1 C 11,9 km/h (2 Bft)
23.04.2016 12:43 7,1 C 19,5 C 9,8 C 9,8 C 9,8 C 2,7 C 75 % 71 % 71 % 1012,6 hPa 0,0 l/m 4,8 km/h (1 Bft) N 0 0 min 3,0 C 9,6 C 4,0 km/h (1 Bft)
23.04.2016 12:50 7,1 C 19,5 C 9,6 C 9,8 C 9,8 C 2,7 C 75 % 73 % 71 % 1012,4 hPa 0,0 l/m 4,3 km/h (1 Bft) SW 225 0 min 3,0 C 9,8 C 4,0 km/h (1 Bft)
23.04.2016 12:55 7,1 C 19,5 C 9,4 C 9,5 C 9,5 C 2,4 C 75 % 72 % 63 % 1012,4 hPa 0,0 l/m 4,3 km/h (1 Bft) S 180 0 min 3,0 C 9,5 C 5,5 km/h (1 Bft)
23.04.2016 13:00 6,9 C 19,5 C 9,2 C 9,3 C 9,3 C 2,4 C 75 % 73 % 63 % 1012,4 hPa 0,0 l/m 4,3 km/h (1 Bft) SW 225 0 min 2,8 C 9,3 C 4,3 km/h (1 Bft)
23.04.2016 13:05 6,8 C 19,5 C 8,9 C 9,0 C 9,0 C 2,2 C 75 % 73 % 58 % 1012,4 hPa 0,0 l/m 3,9 km/h (1 Bft) SW 225 0 min 2,7 C 9,0 C 6,8 km/h (2 Bft)
23.04.2016 13:10 6,7 C 19,5 C 9,1 C 8,7 C 8,7 C 2,0 C 75 % 73 % 53 % 1012,2 hPa 0,0 l/m 4,3 km/h (1 Bft) N-NW 337 0 min 2,6 C 8,7 C 5,3 km/h (1 Bft)
23.04.2016 13:15 6,9 C 19,5 C 9,3 C 9,1 C 9,1 C 2,2 C 76 % 74 % 58 % 1012,2 hPa 0,0 l/m 3,4 km/h (1 Bft) S 180 0 min 3,0 C 9,1 C 3,7 km/h (1 Bft)
23.04.2016 13:20 7,1 C 19,5 C 9,2 C 9,5 C 9,5 C 2,4 C 75 % 73 % 63 % 1012,2 hPa 0,0 l/m 2,7 km/h (1 Bft) W-SW 247 0 min 3,0 C 9,5 C 4,8 km/h (1 Bft)
23.04.2016 13:25 7,1 C 19,5 C 9,1 C 9,4 C 9,4 C 2,3 C 75 % 73 % 61 % 1012,2 hPa 0,0 l/m 3,4 km/h (1 Bft) N-NW 337 0 min 3,0 C 9,4 C 2,1 km/h (1 Bft)
23.04.2016 13:30 7,2 C 19,5 C 9,1 C 9,5 C 9,5 C 2,3 C 75 % 73 % 61 % 1012,2 hPa 0,0 l/m 2,7 km/h (1 Bft) N-NO 22 0 min 3,1 C 9,5 C 2,9 km/h (1 Bft)
23.04.2016 13:35 7,3 C 19,5 C 9,1 C 9,5 C 9,5 C 2,2 C 74 % 73 % 58 % 1012,2 hPa 0,0 l/m 2,1 km/h (1 Bft) S-SW 202 0 min 3,0 C 9,5 C 2,4 km/h (1 Bft)
23.04.2016 13:40 7,2 C 19,5 C 8,9 C 9,4 C 9,4 C 2,2 C 73 % 72 % 58 % 1012,2 hPa 0,0 l/m 2,6 km/h (1 Bft) S 180 0 min 2,7 C 9,4 C 3,2 km/h (1 Bft)
23.04.2016 13:45 7,1 C 19,5 C 8,7 C 9,0 C 9,0 C 1,9 C 73 % 73 % 50 % 1012,2 hPa 0,0 l/m 2,9 km/h (1 Bft) S-SW 202 0 min 2,6 C 9,0 C 2,4 km/h (1 Bft)
23.04.2016 13:50 7,2 C 19,4 C 8,7 C 8,9 C 8,9 C 1,7 C 74 % 73 % 45 % 1011,8 hPa 0,0 l/m 2,6 km/h (1 Bft) N-NW 337 0 min 2,9 C 8,9 C 1,6 km/h (1 Bft)
23.04.2016 13:55 7,2 C 19,5 C 8,7 C 8,7 C 8,7 C 1,5 C 74 % 73 % 39 % 1011,8 hPa 0,0 l/m 2,1 km/h (1 Bft) S 180 0 min 2,9 C 8,7 C 1,8 km/h (1 Bft)
23.04.2016 14:00 7,2 C 19,5 C 8,7 C 8,6 C 8,6 C 1,4 C 73 % 73 % 37 % 1011,8 hPa 0,0 l/m 2,6 km/h (1 Bft) S-SW 202 0 min 2,7 C 8,6 C 5,0 km/h (1 Bft)
23.04.2016 14:05 7,2 C 19,5 C 8,5 C 8,8 C 8,8 C 1,6 C 72 % 72 % 42 % 1011,8 hPa 0,0 l/m 2,4 km/h (1 Bft) SW 225 0 min 2,5 C 8,8 C 5,3 km/h (1 Bft)
23.04.2016 14:10 7,2 C 19,5 C 8,4 C 8,6 C 8,6 C 1,4 C 72 % 72 % 37 % 1011,9 hPa 0,0 l/m 2,9 km/h (1 Bft) W-SW 247 0 min 2,5 C 8,6 C 5,3 km/h (1 Bft)
23.04.2016 14:15 7,1 C 19,5 C 8,4 C 8,3 C 8,3 C 1,2 C 73 % 73 % 32 % 1011,9 hPa 0,0 l/m 2,7 km/h (1 Bft) S 180 0 min 2,6 C 8,3 C 0,0 km/h (0 Bft)
23.04.2016 14:20 7,2 C 19,5 C 8,5 C 8,4 C 8,4 C 1,2 C 73 % 73 % 32 % 1011,9 hPa 0,0 l/m 1,6 km/h (1 Bft) NO 45 0 min 2,7 C 8,4 C 3,5 km/h (1 Bft)
23.04.2016 14:25 7,1 C 19,5 C 7,9 C 7,6 C 7,6 C 0,5 C 73 % 74 % 13 % 1011,9 hPa 0,0 l/m 2,6 km/h (1 Bft) S 180 0 min 2,6 C 7,6 C 5,5 km/h (1 Bft)
23.04.2016 14:30 6,8 C 19,5 C 7,7 C 7,1 C 7,1 C 0,3 C 74 % 75 % 8 % 1011,6 hPa 0,0 l/m 3,4 km/h (1 Bft) S 180 0 min 2,5 C 7,1 C 2,3 km/h (1 Bft)
23.04.2016 14:35 6,7 C 19,5 C 7,9 C 7,0 C 7,0 C 0,3 C 75 % 76 % 8 % 1011,6 hPa 0,0 l/m 2,6 km/h (1 Bft) SO 135 0 min 2,6 C 7,0 C 1,6 km/h (1 Bft)
23.04.2016 14:40 6,6 C 19,4 C 7,8 C 7,0 C 7,0 C 0,4 C 75 % 77 % 11 % 1011,6 hPa 0,0 l/m 2,1 km/h (1 Bft) W 270 0 min 2,5 C 7,0 C 3,7 km/h (1 Bft)
23.04.2016 14:45 6,4 C 19,5 C 7,6 C 6,9 C 6,9 C 0,5 C 76 % 77 % 13 % 1011,6 hPa 0,0 l/m 2,9 km/h (1 Bft) SW 225 0 min 2,5 C 6,9 C 2,7 km/h (1 Bft)
23.04.2016 14:50 6,3 C 19,5 C 7,5 C 6,6 C 6,6 C 0,3 C 76 % 77 % 8 % 1011,6 hPa 0,0 l/m 2,9 km/h (1 Bft) N-NW 337 0 min 2,4 C 6,6 C 2,3 km/h (1 Bft)
23.04.2016 14:55 6,3 C 19,5 C 7,5 C 6,4 C 6,4 C 0,1 C 77 % 78 % 3 % 1011,6 hPa 0,0 l/m 1,8 km/h (1 Bft) W 270 0 min 2,6 C 6,4 C 3,1 km/h (1 Bft)
23.04.2016 15:00 6,1 C 19,5 C 7,4 C 6,4 C 6,4 C 0,3 C 77 % 79 % 8 % 1011,6 hPa 0,0 l/m 1,8 km/h (1 Bft) NO 45 0 min 2,4 C 6,4 C 2,1 km/h (1 Bft)
23.04.2016 15:05 6,0 C 19,4 C 7,3 C 6,3 C 6,3 C 0,3 C 77 % 79 % 8 % 1011,6 hPa 0,0 l/m 2,1 km/h (1 Bft) SW 225 0 min 2,3 C 6,3 C 1,9 km/h (1 Bft)
23.04.2016 15:10 5,9 C 19,4 C 7,3 C 6,3 C 6,3 C 0,4 C 78 % 79 % 11 % 1011,8 hPa 0,0 l/m 2,1 km/h (1 Bft) W-SW 247 0 min 2,4 C 6,3 C 1,6 km/h (1 Bft)
23.04.2016 15:15 5,7 C 19,4 C 7,1 C 6,1 C 6,1 C 0,4 C 78 % 80 % 11 % 1011,8 hPa 0,0 l/m 3,1 km/h (1 Bft) SW 225 0 min 2,2 C 6,1 C 4,8 km/h (1 Bft)
23.04.2016 15:20 5,5 C 19,4 C 6,8 C 5,9 C 5,9 C 0,4 C 78 % 79 % 11 % 1011,8 hPa 0,0 l/m 3,2 km/h (1 Bft) S 180 0 min 2,0 C 5,9 C 2,7 km/h (1 Bft)
23.04.2016 15:25 5,3 C 19,4 C 6,7 C 5,6 C 5,6 C 0,3 C 78 % 80 % 8 % 1011,8 hPa 0,0 l/m 2,4 km/h (1 Bft) NW 315 0 min 1,8 C 5,6 C 3,5 km/h (1 Bft)
23.04.2016 15:30 5,2 C 19,4 C 6,4 C 5,6 C 5,6 C 0,4 C 78 % 80 % 11 % 1012,5 hPa 0,0 l/m 1,9 km/h (1 Bft) NW 315 0 min 1,7 C 5,6 C 6,0 km/h (2 Bft)
23.04.2016 15:35 5,1 C 19,4 C 6,5 C 5,6 C 5,6 C 0,5 C 79 % 81 % 13 % 1012,5 hPa 0,0 l/m 1,9 km/h (1 Bft) NO 45 0 min 1,8 C 5,6 C 0,0 km/h (0 Bft)
23.04.2016 15:43 5,1 C 19,4 C 6,4 C 5,6 C 5,6 C 0,5 C 79 % 81 % 13 % 1012,5 hPa 0,0 l/m 1,8 km/h (1 Bft) N 0 0 min 1,8 C 5,6 C 2,9 km/h (1 Bft)
23.04.2016 15:50 5,1 C 19,4 C 6,5 C 5,6 C 5,6 C 0,5 C 79 % 82 % 13 % 1011,4 hPa 0,0 l/m 2,6 km/h (1 Bft) S 180 0 min 1,8 C 5,6 C 2,3 km/h (1 Bft)
23.04.2016 15:55 4,9 C 19,5 C 6,4 C 5,6 C 5,6 C 0,7 C 80 % 83 % 18 % 1011,4 hPa 0,0 l/m 1,9 km/h (1 Bft) NW 315 0 min 1,7 C 5,6 C 2,4 km/h (1 Bft)
23.04.2016 16:00 4,8 C 19,5 C 6,4 C 5,6 C 5,6 C 0,8 C 80 % 84 % 21 % 1011,4 hPa 0,7 l/m 1,3 km/h (1 Bft) W-NW 292 0 min 1,6 C 5,6 C 3,9 km/h (1 Bft)
23.04.2016 16:05 4,8 C 19,5 C 6,5 C 5,6 C 5,6 C 0,8 C 80 % 84 % 21 % 1011,4 hPa 0,0 l/m 1,4 km/h (1 Bft) NW 315 0 min 1,6 C 5,6 C 3,1 km/h (1 Bft)
23.04.2016 16:10 4,7 C 19,4 C 6,6 C 5,9 C 5,9 C 1,2 C 80 % 85 % 32 % 1011,2 hPa 0,0 l/m 1,4 km/h (1 Bft) SW 225 0 min 1,6 C 5,9 C 6,4 km/h (2 Bft)
23.04.2016 16:15 4,7 C 19,4 C 6,7 C 6,1 C 6,1 C 1,4 C 80 % 85 % 37 % 1011,2 hPa 0,0 l/m 1,3 km/h (1 Bft) N-NO 22 0 min 1,6 C 6,1 C 1,6 km/h (1 Bft)
23.04.2016 16:20 4,8 C 19,4 C 6,5 C 6,1 C 6,1 C 1,3 C 81 % 85 % 34 % 1011,2 hPa 0,0 l/m 1,3 km/h (1 Bft) N-NW 337 0 min 1,8 C 6,1 C 2,6 km/h (1 Bft)
23.04.2016 16:25 4,7 C 19,3 C 6,3 C 5,8 C 5,8 C 1,1 C 80 % 85 % 29 % 1011,2 hPa 0,0 l/m 1,3 km/h (1 Bft) W-NW 292 0 min 1,6 C 5,8 C 3,9 km/h (1 Bft)
23.04.2016 16:30 4,7 C 19,3 C 6,4 C 5,8 C 5,8 C 1,1 C 81 % 85 % 29 % 1011,2 hPa 0,0 l/m 2,1 km/h (1 Bft) W 270 0 min 1,7 C 5,8 C 2,6 km/h (1 Bft)
23.04.2016 16:35 4,7 C 19,3 C 6,5 C 5,9 C 5,9 C 1,2 C 81 % 86 % 32 % 1011,2 hPa 0,0 l/m 2,6 km/h (1 Bft) SW 225 0 min 1,7 C 5,9 C 2,7 km/h (1 Bft)
23.04.2016 16:40 4,7 C 19,3 C 6,4 C 5,8 C 5,8 C 1,1 C 81 % 86 % 29 % 1011,2 hPa 0,0 l/m 2,4 km/h (1 Bft) W-SW 247 0 min 1,7 C 5,8 C 3,5 km/h (1 Bft)
23.04.2016 16:45 4,7 C 19,3 C 6,2 C 5,5 C 5,5 C 0,8 C 80 % 86 % 21 % 1011,2 hPa 0,0 l/m 1,6 km/h (1 Bft) W-NW 292 0 min 1,6 C 5,5 C 2,6 km/h (1 Bft)
23.04.2016 16:50 4,7 C 19,3 C 6,1 C 5,3 C 5,3 C 0,6 C 80 % 86 % 16 % 1011,1 hPa 0,0 l/m 1,3 km/h (1 Bft) SW 225 0 min 1,6 C 5,3 C 1,8 km/h (1 Bft)
23.04.2016 16:55 4,7 C 19,3 C 6,1 C 5,2 C 5,2 C 0,5 C 80 % 86 % 13 % 1011,1 hPa 0,0 l/m 1,8 km/h (1 Bft) W 270 0 min 1,6 C 5,2 C 3,2 km/h (1 Bft)
23.04.2016 17:00 4,6 C 19,3 C 6,0 C 5,1 C 5,1 C 0,5 C 80 % 87 % 13 % 1011,1 hPa 0,0 l/m 1,3 km/h (1 Bft) N-NW 337 0 min 1,5 C 5,1 C 1,6 km/h (1 Bft)
23.04.2016 17:05 4,6 C 19,3 C 6,0 C 5,0 C 5,0 C 0,4 C 80 % 86 % 11 % 1011,1 hPa 0,0 l/m 0,6 km/h (0 Bft) W-SW 247 0 min 1,5 C 5,0 C 3,4 km/h (1 Bft)
23.04.2016 17:10 4,6 C 19,3 C 6,0 C 4,9 C 4,9 C 0,3 C 80 % 87 % 8 % 1010,9 hPa 0,0 l/m 0,8 km/h (0 Bft) W-SW 247 0 min 1,5 C 4,9 C 0,0 km/h (0 Bft)
23.04.2016 17:15 4,5 C 19,2 C 5,9 C 4,9 C 4,9 C 0,4 C 80 % 87 % 11 % 1010,9 hPa 0,0 l/m 0,6 km/h (0 Bft) SW 225 0 min 1,4 C 4,9 C 0,0 km/h (0 Bft)
23.04.2016 17:20 4,5 C 19,2 C 5,9 C 4,7 C 4,7 C 0,2 C 80 % 87 % 5 % 1010,9 hPa 0,0 l/m 1,3 km/h (1 Bft) W-SW 247 0 min 1,4 C 4,7 C 0,0 km/h (0 Bft)
23.04.2016 17:25 4,5 C 19,3 C 5,7 C 4,5 C 4,4 C 0,0 C 80 % 87 % 0 % 1010,9 hPa 0,0 l/m 1,9 km/h (1 Bft) O-NO 67 0 min 1,4 C 4,4 C 0,0 km/h (0 Bft)
23.04.2016 17:30 4,4 C 19,3 C 5,5 C 4,4 C 4,4 C 0,0 C 80 % 87 % 0 % 1011,1 hPa 0,0 l/m 1,0 km/h (0 Bft) W-SW 247 0 min 1,3 C 4,4 C 0,0 km/h (0 Bft)
23.04.2016 17:35 4,4 C 19,4 C 5,5 C 4,4 C 4,4 C 0,0 C 80 % 87 % 0 % 1011,1 hPa 0,7 l/m 0,5 km/h (0 Bft) S-SW 202 0 min 1,3 C 4,4 C 2,6 km/h (1 Bft)
23.04.2016 17:40 4,3 C 19,4 C 5,5 C 4,4 C 4,4 C 0,1 C 80 % 87 % 3 % 1011,1 hPa 0,0 l/m 0,8 km/h (0 Bft) W 270 0 min 1,2 C 4,4 C 2,7 km/h (1 Bft)
23.04.2016 17:45 4,3 C 19,4 C 5,2 C 4,3 C 4,3 C 0,0 C 80 % 87 % 0 % 1011,1 hPa 0,0 l/m 1,4 km/h (1 Bft) NW 315 0 min 1,2 C 4,3 C 2,9 km/h (1 Bft)
23.04.2016 17:50 4,3 C 19,4 C 5,1 C 4,3 C 4,2 C 0,0 C 80 % 88 % 0 % 1011,1 hPa 0,0 l/m 1,1 km/h (1 Bft) SW 225 0 min 1,2 C 4,2 C 0,0 km/h (0 Bft)
23.04.2016 17:55 4,1 C 19,4 C 5,1 C 4,2 C 4,2 C 0,1 C 80 % 88 % 3 % 1011,1 hPa 0,0 l/m 1,3 km/h (1 Bft) W-SW 247 0 min 1,0 C 4,2 C 2,7 km/h (1 Bft)
23.04.2016 18:00 4,1 C 19,4 C 5,1 C 4,1 C 4,0 C 0,0 C 80 % 88 % 0 % 1011,1 hPa 0,0 l/m 1,9 km/h (1 Bft) S-SW 202 0 min 1,0 C 4,0 C 4,5 km/h (1 Bft)
23.04.2016 18:05 3,9 C 19,4 C 5,0 C 3,9 C 3,9 C 0,0 C 81 % 89 % 0 % 1011,1 hPa 0,0 l/m 1,9 km/h (1 Bft) SW 225 0 min 0,9 C 3,9 C 0,0 km/h (0 Bft)
23.04.2016 18:10 3,9 C 19,5 C 5,1 C 4,0 C 4,0 C 0,1 C 81 % 89 % 3 % 1010,9 hPa 0,0 l/m 1,0 km/h (0 Bft) W 270 0 min 0,9 C 4,0 C 0,0 km/h (0 Bft)
23.04.2016 18:15 3,9 C 19,4 C 5,1 C 4,2 C 4,2 C 0,3 C 82 % 89 % 8 % 1010,9 hPa 0,0 l/m 0,2 km/h (0 Bft) W-SW 247 0 min 1,1 C 4,2 C 0,0 km/h (0 Bft)
23.04.2016 18:20 3,8 C 19,4 C 5,1 C 4,3 C 4,3 C 0,5 C 82 % 89 % 13 % 1010,9 hPa 0,0 l/m 0,5 km/h (0 Bft) W-SW 247 0 min 1,0 C 4,3 C 0,0 km/h (0 Bft)
23.04.2016 18:25 3,9 C 19,4 C 5,1 C 4,3 C 4,3 C 0,4 C 82 % 89 % 11 % 1010,9 hPa 0,0 l/m 0,3 km/h (0 Bft) S 180 0 min 1,1 C 4,3 C 0,0 km/h (0 Bft)
23.04.2016 18:30 3,9 C 19,4 C 5,1 C 4,3 C 4,3 C 0,4 C 82 % 89 % 11 % 1010,9 hPa 0,0 l/m 0,2 km/h (0 Bft) S 180 0 min 1,1 C 4,3 C 0,0 km/h (0 Bft)
23.04.2016 18:35 3,9 C 19,3 C 5,1 C 4,3 C 4,3 C 0,4 C 82 % 89 % 11 % 1010,9 hPa 0,0 l/m 0,5 km/h (0 Bft) NW 315 0 min 1,1 C 4,3 C 0,0 km/h (0 Bft)
23.04.2016 18:42 3,9 C 19,3 C 5,1 C 4,1 C 4,1 C 0,2 C 82 % 89 % 5 % 1010,9 hPa 0,0 l/m 0,5 km/h (0 Bft) N 0 0 min 1,1 C 4,1 C 1,9 km/h (1 Bft)
23.04.2016 18:50 3,8 C 19,3 C 5,1 C 4,0 C 4,0 C 0,2 C 82 % 89 % 5 % 1010,4 hPa 0,0 l/m 0,3 km/h (0 Bft) W-SW 247 0 min 1,0 C 4,0 C 0,0 km/h (0 Bft)
23.04.2016 18:55 3,9 C 19,4 C 5,1 C 4,0 C 4,0 C 0,1 C 82 % 89 % 3 % 1010,4 hPa 0,0 l/m 0,3 km/h (0 Bft) S 180 0 min 1,1 C 4,0 C 0,0 km/h (0 Bft)
23.04.2016 19:00 3,9 C 19,3 C 5,1 C 4,1 C 4,1 C 0,2 C 82 % 89 % 5 % 1010,4 hPa 0,0 l/m 0,0 km/h (0 Bft) SO 135 0 min 1,1 C 4,1 C 0,0 km/h (0 Bft)
23.04.2016 19:05 3,9 C 19,4 C 5,2 C 4,2 C 4,2 C 0,3 C 82 % 89 % 8 % 1010,4 hPa 0,0 l/m 0,0 km/h (0 Bft) O-SO 112 0 min 1,1 C 4,2 C 0,0 km/h (0 Bft)
23.04.2016 19:10 3,9 C 19,3 C 5,1 C 4,3 C 4,3 C 0,4 C 82 % 89 % 11 % 1010,7 hPa 0,0 l/m 0,0 km/h (0 Bft) SW 225 0 min 1,1 C 4,3 C 0,0 km/h (0 Bft)
23.04.2016 19:15 4,0 C 19,3 C 5,1 C 4,4 C 4,4 C 0,4 C 82 % 89 % 11 % 1010,7 hPa 0,0 l/m 0,5 km/h (0 Bft) O 90 0 min 1,2 C 4,4 C 0,0 km/h (0 Bft)
23.04.2016 19:20 3,9 C 19,4 C 5,3 C 4,5 C 4,5 C 0,6 C 82 % 89 % 16 % 1010,7 hPa 0,0 l/m 0,5 km/h (0 Bft) O 90 0 min 1,1 C 4,5 C 0,0 km/h (0 Bft)
23.04.2016 19:25 3,9 C 19,4 C 5,3 C 4,8 C 4,8 C 0,9 C 82 % 89 % 24 % 1010,7 hPa 0,0 l/m 0,0 km/h (0 Bft) N-NO 22 0 min 1,1 C 4,8 C 0,0 km/h (0 Bft)
23.04.2016 19:30 4,0 C 19,3 C 5,2 C 4,9 C 4,9 C 0,9 C 82 % 89 % 24 % 1010,8 hPa 0,0 l/m 0,0 km/h (0 Bft) SO 135 0 min 1,2 C 4,9 C 0,0 km/h (0 Bft)
23.04.2016 19:35 4,0 C 19,3 C 5,2 C 5,0 C 5,0 C 1,0 C 82 % 89 % 26 % 1010,8 hPa 0,0 l/m 0,0 km/h (0 Bft) NW 315 5 min 1,2 C 5,0 C 0,0 km/h (0 Bft)
23.04.2016 19:40 4,0 C 19,3 C 5,2 C 5,0 C 5,0 C 1,0 C 82 % 89 % 26 % 1010,8 hPa 0,0 l/m 0,0 km/h (0 Bft) N-NO 22 5 min 1,2 C 5,0 C 0,0 km/h (0 Bft)
23.04.2016 19:45 4,0 C 19,3 C 5,2 C 4,9 C 4,9 C 0,9 C 82 % 89 % 24 % 1010,8 hPa 0,0 l/m 0,0 km/h (0 Bft) O 90 5 min 1,2 C 4,9 C 0,0 km/h (0 Bft)
23.04.2016 19:50 4,0 C 19,4 C 5,2 C 4,8 C 4,8 C 0,8 C 82 % 89 % 21 % 1010,8 hPa 0,0 l/m 0,0 km/h (0 Bft) O 90 5 min 1,2 C 4,8 C 0,0 km/h (0 Bft)
23.04.2016 19:55 4,0 C 19,4 C 5,1 C 4,6 C 4,6 C 0,6 C 83 % 89 % 16 % 1010,8 hPa 0,0 l/m 0,5 km/h (0 Bft) S-SW 202 5 min 1,4 C 4,6 C 2,3 km/h (1 Bft)
23.04.2016 20:00 3,9 C 19,4 C 5,0 C 4,5 C 4,5 C 0,6 C 83 % 90 % 16 % 1010,8 hPa 0,0 l/m 1,3 km/h (1 Bft) S-SO 157 5 min 1,3 C 4,5 C 2,1 km/h (1 Bft)
23.04.2016 20:05 3,9 C 19,4 C 5,1 C 4,5 C 4,5 C 0,6 C 83 % 90 % 16 % 1010,8 hPa 0,0 l/m 1,6 km/h (1 Bft) O 90 5 min 1,3 C 4,5 C 0,0 km/h (0 Bft)
23.04.2016 20:10 3,9 C 19,4 C 4,9 C 4,4 C 4,4 C 0,5 C 83 % 90 % 0 % 1010,8 hPa 0,0 l/m 1,1 km/h (1 Bft) S 180 0 min 1,3 C 4,4 C 1,8 km/h (1 Bft)
23.04.2016 20:15 3,7 C 19,4 C 4,8 C 4,4 C 4,4 C 0,7 C 83 % 90 % 0 % 1010,8 hPa 0,0 l/m 0,8 km/h (0 Bft) O 90 0 min 1,1 C 4,4 C 0,0 km/h (0 Bft)
23.04.2016 20:20 3,7 C 19,4 C 4,8 C 4,2 C 4,2 C 0,5 C 83 % 90 % 0 % 1010,8 hPa 0,0 l/m 1,0 km/h (0 Bft) W-SW 247 0 min 1,1 C 4,2 C 1,9 km/h (1 Bft)
23.04.2016 20:25 3,6 C 19,4 C 4,6 C 3,9 C 3,9 C 0,3 C 83 % 90 % 0 % 1010,8 hPa 0,0 l/m 1,1 km/h (1 Bft) S-SO 157 0 min 1,0 C 3,9 C 2,3 km/h (1 Bft)
23.04.2016 20:30 3,6 C 19,4 C 4,5 C 3,8 C 3,8 C 0,2 C 83 % 90 % 0 % 1011,1 hPa 0,0 l/m 1,1 km/h (1 Bft) NW 315 0 min 1,0 C 3,8 C 2,3 km/h (1 Bft)
23.04.2016 20:35 3,4 C 19,4 C 4,5 C 3,4 C 3,4 C 0,0 C 83 % 90 % 0 % 1011,1 hPa 0,0 l/m 0,5 km/h (0 Bft) W-SW 247 0 min 0,8 C 3,4 C 0,0 km/h (0 Bft)
23.04.2016 20:40 3,5 C 19,4 C 4,3 C 3,4 C 3,3 C 0,0 C 83 % 90 % 0 % 1011,1 hPa 0,0 l/m 0,5 km/h (0 Bft) S 180 0 min 0,9 C 3,3 C 3,1 km/h (1 Bft)
23.04.2016 20:45 3,3 C 19,4 C 4,1 C 3,2 C 3,1 C 0,0 C 83 % 90 % 0 % 1011,1 hPa 0,0 l/m 0,3 km/h (0 Bft) W 270 0 min 0,7 C 3,1 C 0,0 km/h (0 Bft)
23.04.2016 20:50 3,2 C 19,4 C 4,1 C 3,1 C 3,0 C 0,0 C 83 % 90 % 0 % 1011,1 hPa 0,0 l/m 0,5 km/h (0 Bft) SW 225 0 min 0,6 C 3,0 C 0,0 km/h (0 Bft)
23.04.2016 20:55 3,1 C 19,4 C 3,8 C 3,0 C 2,9 C 0,0 C 84 % 90 % 0 % 1011,1 hPa 0,0 l/m 0,3 km/h (0 Bft) S 180 0 min 0,7 C 2,9 C 0,0 km/h (0 Bft)
23.04.2016 21:00 3,1 C 19,4 C 3,8 C 3,0 C 2,8 C 0,0 C 84 % 90 % 0 % 1011,1 hPa 0,0 l/m 0,2 km/h (0 Bft) SW 225 0 min 0,7 C 2,8 C 0,0 km/h (0 Bft)
23.04.2016 21:05 2,9 C 19,5 C 3,7 C 2,8 C 2,5 C 0,0 C 84 % 90 % 0 % 1011,1 hPa 0,0 l/m 0,2 km/h (0 Bft) SW 225 0 min 0,5 C 2,5 C 0,0 km/h (0 Bft)
23.04.2016 21:10 2,8 C 19,5 C 3,5 C 2,7 C 2,4 C 0,0 C 84 % 90 % 0 % 1011,3 hPa 0,0 l/m 0,2 km/h (0 Bft) NW 315 0 min 0,4 C 2,4 C 0,0 km/h (0 Bft)
23.04.2016 21:15 2,7 C 19,5 C 3,5 C 2,6 C 2,3 C 0,0 C 84 % 90 % 0 % 1011,3 hPa 0,0 l/m 0,3 km/h (0 Bft) W-SW 247 0 min 0,3 C 2,3 C 0,0 km/h (0 Bft)
23.04.2016 21:20 2,7 C 19,5 C 3,4 C 2,6 C 2,4 C 0,0 C 84 % 90 % 0 % 1011,3 hPa 0,0 l/m 0,6 km/h (0 Bft) S-SO 157 0 min 0,3 C 2,4 C 1,9 km/h (1 Bft)
23.04.2016 21:25 2,6 C 19,4 C 3,3 C 2,5 C 2,4 C 0,0 C 84 % 89 % 0 % 1011,3 hPa 0,0 l/m 0,5 km/h (0 Bft) NO 45 0 min 0,2 C 2,4 C 0,0 km/h (0 Bft)
23.04.2016 21:30 2,7 C 19,4 C 3,3 C 2,6 C 2,3 C 0,0 C 84 % 89 % 0 % 1011,7 hPa 0,0 l/m 0,2 km/h (0 Bft) W-SW 247 0 min 0,3 C 2,3 C 2,9 km/h (1 Bft)
23.04.2016 21:35 2,5 C 19,4 C 3,3 C 2,4 C 2,2 C 0,0 C 84 % 89 % 0 % 1011,7 hPa 0,0 l/m 0,6 km/h (0 Bft) SW 225 0 min 0,1 C 2,2 C 1,9 km/h (1 Bft)
23.04.2016 21:43 2,5 C 19,4 C 3,3 C 2,4 C 2,2 C 0,0 C 85 % 89 % 0 % 1011,7 hPa 0,0 l/m 1,4 km/h (1 Bft) N 0 0 min 0,2 C 2,2 C 0,0 km/h (0 Bft)
23.04.2016 21:50 2,4 C 19,4 C 3,2 C 2,3 C 2,2 C 0,0 C 85 % 89 % 0 % 1011,5 hPa 0,0 l/m 0,8 km/h (0 Bft) S 180 0 min 0,1 C 2,2 C 0,0 km/h (0 Bft)
23.04.2016 21:55 2,4 C 19,4 C 3,1 C 2,2 C 1,9 C 0,0 C 85 % 89 % 0 % 1011,5 hPa 0,0 l/m 0,3 km/h (0 Bft) SW 225 0 min 0,1 C 1,9 C 0,0 km/h (0 Bft)
23.04.2016 22:00 2,3 C 19,4 C 3,1 C 2,1 C 1,8 C 0,0 C 85 % 89 % 0 % 1011,5 hPa 0,0 l/m 0,3 km/h (0 Bft) W-SW 247 0 min 0,0 C 1,8 C 0,0 km/h (0 Bft)
23.04.2016 22:05 2,2 C 19,5 C 2,8 C 2,0 C 1,6 C 0,0 C 84 % 89 % 0 % 1011,5 hPa 0,0 l/m 0,2 km/h (0 Bft) SW 225 0 min -0,2 C 1,6 C 0,0 km/h (0 Bft)
23.04.2016 22:10 2,0 C 19,4 C 2,6 C 1,8 C 1,4 C 0,0 C 85 % 89 % 0 % 1011,5 hPa 0,0 l/m 0,0 km/h (0 Bft) W-NW 292 0 min -0,3 C 1,4 C 0,0 km/h (0 Bft)
23.04.2016 22:15 2,0 C 19,4 C 2,7 C 1,7 C 1,2 C 0,0 C 85 % 89 % 0 % 1011,5 hPa 0,0 l/m 0,0 km/h (0 Bft) SW 225 0 min -0,3 C 1,2 C 0,0 km/h (0 Bft)
23.04.2016 22:20 1,9 C 19,4 C 2,7 C 1,6 C 1,1 C 0,0 C 85 % 89 % 0 % 1011,5 hPa 0,0 l/m 0,0 km/h (0 Bft) SW 225 0 min -0,3 C 1,1 C 0,0 km/h (0 Bft)
23.04.2016 22:25 1,9 C 19,4 C 2,7 C 1,6 C 1,0 C 0,0 C 85 % 89 % 0 % 1011,5 hPa 0,0 l/m 0,0 km/h (0 Bft) W-SW 247 0 min -0,3 C 1,0 C 0,0 km/h (0 Bft)
23.04.2016 22:30 1,7 C 19,3 C 2,5 C 1,5 C 1,0 C 0,0 C 85 % 89 % 0 % 1011,7 hPa 0,0 l/m 0,0 km/h (0 Bft) W-SW 247 0 min -0,5 C 1,0 C 0,0 km/h (0 Bft)
23.04.2016 22:35 1,7 C 19,3 C 2,5 C 1,5 C 1,0 C 0,0 C 85 % 89 % 0 % 1011,7 hPa 0,0 l/m 0,2 km/h (0 Bft) W-SW 247 0 min -0,5 C 1,0 C 0,0 km/h (0 Bft)
23.04.2016 22:40 1,6 C 19,2 C 2,5 C 1,4 C 1,0 C 0,0 C 85 % 88 % 0 % 1011,7 hPa 0,0 l/m 0,2 km/h (0 Bft) W-SW 247 0 min -0,6 C 1,0 C 0,0 km/h (0 Bft)
23.04.2016 22:45 1,5 C 19,3 C 2,3 C 1,3 C 0,8 C 0,0 C 85 % 89 % 0 % 1011,7 hPa 0,0 l/m 0,0 km/h (0 Bft) SW 225 0 min -0,7 C 0,8 C 0,0 km/h (0 Bft)
23.04.2016 22:50 1,5 C 19,3 C 2,2 C 1,2 C 0,7 C 0,0 C 85 % 89 % 0 % 1011,7 hPa 0,0 l/m 0,0 km/h (0 Bft) SW 225 0 min -0,7 C 0,7 C 0,0 km/h (0 Bft)
23.04.2016 22:55 1,3 C 19,3 C 2,3 C 1,1 C 0,8 C 0,0 C 86 % 88 % 0 % 1011,7 hPa 0,0 l/m 0,0 km/h (0 Bft) SW 225 0 min -0,8 C 0,8 C 0,0 km/h (0 Bft)
23.04.2016 23:00 1,3 C 19,4 C 2,3 C 1,1 C 0,8 C 0,0 C 86 % 88 % 0 % 1011,7 hPa 0,0 l/m 0,0 km/h (0 Bft) W-NW 292 0 min -0,8 C 0,8 C 2,1 km/h (1 Bft)
23.04.2016 23:05 1,2 C 19,4 C 2,0 C 1,0 C 0,7 C 0,0 C 85 % 88 % 0 % 1011,7 hPa 0,0 l/m 0,2 km/h (0 Bft) SW 225 0 min -1,0 C 0,7 C 0,0 km/h (0 Bft)
23.04.2016 23:10 1,1 C 19,4 C 2,0 C 0,9 C 0,6 C 0,0 C 85 % 88 % 0 % 1011,6 hPa 0,0 l/m 0,3 km/h (0 Bft) W 270 0 min -1,1 C 0,6 C 0,0 km/h (0 Bft)
23.04.2016 23:15 1,1 C 19,4 C 1,9 C 0,9 C 0,5 C 0,0 C 85 % 88 % 0 % 1011,6 hPa 0,0 l/m 0,6 km/h (0 Bft) W-SW 247 0 min -1,1 C 0,5 C 2,6 km/h (1 Bft)
23.04.2016 23:20 1,0 C 19,4 C 1,9 C 0,8 C 0,5 C 0,0 C 86 % 88 % 0 % 1011,6 hPa 0,0 l/m 1,0 km/h (0 Bft) W-NW 292 0 min -1,1 C 0,5 C 2,9 km/h (1 Bft)
23.04.2016 23:25 0,9 C 19,4 C 1,9 C 0,8 C 0,5 C 0,0 C 86 % 88 % 0 % 1011,6 hPa 0,0 l/m 1,1 km/h (1 Bft) W-SW 247 0 min -1,2 C 0,5 C 2,3 km/h (1 Bft)
23.04.2016 23:30 0,7 C 19,4 C 1,7 C 0,6 C 0,3 C 0,0 C 86 % 88 % 0 % 1011,4 hPa 0,0 l/m 0,8 km/h (0 Bft) W-SW 247 0 min -1,4 C 0,3 C 1,6 km/h (1 Bft)
23.04.2016 23:35 0,7 C 19,4 C 1,7 C 0,5 C 0,1 C 0,0 C 86 % 88 % 0 % 1011,4 hPa 0,0 l/m 0,2 km/h (0 Bft) W-SW 247 0 min -1,4 C 0,1 C 0,0 km/h (0 Bft)
23.04.2016 23:40 0,5 C 19,4 C 1,5 C 0,3 C 0,0 C 0,0 C 86 % 88 % 0 % 1011,4 hPa 0,0 l/m 0,3 km/h (0 Bft) W-SW 247 0 min -1,6 C 0,0 C 1,6 km/h (1 Bft)
23.04.2016 23:45 0,4 C 19,4 C 1,5 C 0,2 C -0,1 C 0,0 C 86 % 88 % 0 % 1011,4 hPa 0,0 l/m 1,0 km/h (0 Bft) W-SW 247 0 min -1,7 C -0,1 C 1,6 km/h (1 Bft)
23.04.2016 23:50 0,4 C 19,4 C 1,5 C 0,2 C -0,1 C 0,0 C 86 % 88 % 0 % 1011,8 hPa 0,0 l/m 0,8 km/h (0 Bft) W 270 0 min -1,7 C -0,1 C 0,0 km/h (0 Bft)
23.04.2016 23:55 0,2 C 19,4 C 1,3 C 0,0 C -0,3 C 0,0 C 86 % 88 % 0 % 1011,8 hPa 0,0 l/m 0,5 km/h (0 Bft) W-SW 247 0 min -1,9 C -0,3 C 0,0 km/h (0 Bft)
_ Min-Zeit 23:55 17:15 23:55 23:55 23:55 00:00 10:55 10:40 00:00 18:50 - 00:00 - - - 23:55 23:55 00:00
Minimum _ 0,2 C 19,2 C 1,3 C 0,0 C -0,3 C 0,0 C 72 % 71 % 0 % 1010,4 hPa - 0,0 km/h (0 Bft) - - - -1,9 C -0,3 C 0,0 km/h (0 Bft)
_ Max-Zeit 12:20 00:00 12:25 12:25 12:25 09:35 22:55 20:00 09:35 00:10 16:00 12:35 - - 09:50 12:20 12:25 12:35
Maximum _ 7,5 C 20,4 C 10,1 C 10,7 C 10,7 C 3,9 C 86 % 90 % 100 % 1016,0 hPa 0,7 l/m 6,1 km/h
W-SW (2 Bft)
- - 9 min 3,4 C 10,7 C 11,9 km/h
W-SW (2 Bft)
Durchschnitt _ 4,4 C 19,6 C 5,7 C 5,3 C 5,3 C 1,0 C 80 % 83 % 24 % 1012,7 hPa #1,4 l/m 1,3 km/h (1 Bft) W-SW - #3:10 h 1,2 C 5,2 C 1,9 km/h (1 Bft)
2016 www.wetterstation-wechselburg.de